Station BMTW1 - 9445958 - Bremerton, WA Image indicating link to RSS feed of recent meteorological observations for station BMTW1


Conditions at BMTW1 as of
(7:48 am PDT)
1448 GMT on 07/15/2024:
     

Click on the graph icon in the table below to see a time series plot of the last five days of that observation.

5-day plot - Wind Direction Wind Direction (WDIR): E ( 80 deg true )
5-day plot - Wind Speed Wind Speed (WSPD): 5.1 kts
5-day plot - Wind Gust Wind Gust (GST): 8.0 kts
5-day plot - Atmospheric Pressure Atmospheric Pressure (PRES):30.16 in
5-day plot - Air Temperature Air Temperature (ATMP): 56.8 °F
5-day plot - Wind Speed at 10 Meters Wind Speed at 10 meters (WSPD10M): 3.9 kts
5-day plot - Wind Speed at 20 Meters Wind Speed at 20 meters (WSPD20M): 5.8 kts
5-day plot -  Wind Speed, Wind Gust and Atmospheric Pressure Combined plot of Wind Speed, Gust, and Air Pressure
NOS Water Level Observation Network Water Level
Previous observations
TIME
(PDT)
5-day plot - Wind Direction
WDIR
 
5-day plot - Wind Speed
WSPD
kts
5-day plot - Wind Gust
GST
kts
5-day plot - Wave Height
WVHT
ft
5-day plot - Dominant Wave Period
DPD
sec
5-day plot - Average Wave Period
APD
sec
5-day plot - Mean Wave Direction
MWD
 
5-day plot - Atmospheric Pressure
PRES
in
5-day plot - Pressure Tendency
PTDY
in
5-day plot - Air Temperature
ATMP
°F
5-day plot - Water Temperature
WTMP
°F
5-day plot - Dew Point
DEWP
°F
5-day plot - Salinity
SAL
psu
5-day plot - Visibility
VIS
nmi
5-day plot - Tide (above MLLW)
TIDE
ft
2024-07-15 07:42 am NE 4.1 7.0----30.16- 56.7-----
2024-07-15 07:36 amNNE 4.1 7.0----30.16- 56.5-----
2024-07-15 07:30 amNNE 5.1 7.0----30.16- 56.3-----
2024-07-15 07:24 am N 2.9 6.0----30.16- 56.5-----
2024-07-15 07:18 amNNE 4.1 6.0----30.16- 56.1-----
2024-07-15 07:12 am NE 4.1 6.0----30.16- 56.3-----
2024-07-15 07:06 amNNE 4.1 7.0----30.16- 56.1-----
2024-07-15 07:00 amNNE 5.1 7.0----30.16+0.03 56.3-----
2024-07-15 06:54 am N 4.1 6.0----30.15- 56.3-----
2024-07-15 06:48 amNNE 5.1 7.0----30.15- 56.3-----
2024-07-15 06:42 am N 1.0 7.0----30.15- 56.5-----
2024-07-15 06:36 am N 2.9 6.0----30.15- 56.8-----
2024-07-15 06:30 am N 4.1 7.0----30.15- 56.7-----
2024-07-15 06:24 am- 0.0 5.1----30.15- 57.2-----
2024-07-15 06:18 amNNE 4.1 6.0----30.14- 56.8-----
2024-07-15 06:12 amNNE 5.1 6.0----30.14- 57.0-----
2024-07-15 06:06 am NE 2.9 6.0----30.14- 57.0-----
2024-07-15 06:00 amNNE 5.1 7.0----30.14+0.03 56.7-----
2024-07-15 05:54 am NE 2.9 5.1----30.14- 57.0-----
2024-07-15 05:48 am NE 4.1 7.0----30.14- 57.2-----
2024-07-15 05:42 am E 5.1 8.0----30.14- 57.2-----
2024-07-15 05:36 amENE 4.1 6.0----30.14- 57.2-----
2024-07-15 05:30 am E 4.1 8.9----30.14- 57.4-----
2024-07-15 05:24 am E 4.1 8.0----30.14- 57.0-----
2024-07-15 05:18 amENE 4.1 7.0----30.13- 57.0-----
2024-07-15 05:12 amENE 5.1 7.0----30.13- 56.8-----
2024-07-15 05:06 amNNE 6.0 8.0----30.13- 56.8-----
2024-07-15 05:00 amNNE 6.0 8.0----30.13+0.03 56.8-----
2024-07-15 04:54 amNNE 5.1 8.0----30.13- 57.0-----
2024-07-15 04:48 amNNE 5.1 8.9----30.13- 57.0-----
2024-07-15 04:42 amNNE 6.0 8.9----30.13- 57.0-----
2024-07-15 04:36 amNNE 7.0 8.9----30.13- 56.8-----
2024-07-15 04:30 amNNE 5.1 8.9----30.13- 57.0-----
2024-07-15 04:24 amNNE 5.1 9.9----30.13- 57.4-----
2024-07-15 04:18 amNNE 6.0 8.9----30.12- 57.0-----
2024-07-15 04:12 am N 2.9 9.9----30.12- 57.2-----
2024-07-15 04:06 amNNE 5.1 7.0----30.12- 57.2-----
2024-07-15 04:00 amENE 1.0 7.0----30.12+0.02 57.4-----
2024-07-15 03:54 amNNE 4.1 8.0----30.12- 57.4-----
2024-07-15 03:48 amNNE 2.9 8.0----30.12- 57.6-----
2024-07-15 03:42 amNNW 1.9 6.0----30.12- 57.4-----
2024-07-15 03:36 am N 1.9 6.0----30.12- 57.7-----
2024-07-15 03:30 am NE 1.9 6.0----30.11- 57.7-----
2024-07-15 03:24 amNNE 4.1 8.0----30.11- 57.4-----
2024-07-15 03:18 am N 1.9 6.0----30.11- 57.7-----
2024-07-15 03:12 amENE 1.0 7.0----30.11- 57.7-----
2024-07-15 03:06 am N 4.1 8.0----30.11- 57.4-----
2024-07-15 03:00 am N 1.9 7.0----30.11+0.02 57.7-----
2024-07-15 02:54 amNNE 1.9 6.0----30.11- 57.4-----
2024-07-15 02:48 amNNE 1.9 5.1----30.11- 57.6-----
2024-07-15 02:42 am N 1.9 7.0----30.11- 57.6-----
2024-07-15 02:36 amNNE 1.9 7.0----30.11- 57.9-----
2024-07-15 02:30 am N 5.1 8.9----30.11- 57.7-----
2024-07-15 02:24 amNNE 2.9 7.0----30.11- 57.7-----
2024-07-15 02:18 amNNE 4.1 8.0----30.11-------
2024-07-15 02:12 amNNE 4.1 8.9----30.11- 57.7-----
2024-07-15 02:06 am N 4.1 11.1----30.11- 57.7-----
2024-07-15 02:00 amNNE 6.0 8.9----30.11+0.03 57.7-----
2024-07-15 01:54 am N 5.1 9.9----30.11- 57.7-----
2024-07-15 01:48 amNNE 5.1 8.0----30.10- 57.9-----
2024-07-15 01:42 amNNE 6.0 8.0----30.10- 57.7-----
2024-07-15 01:36 am N 5.1 8.9----30.10- 58.1-----
2024-07-15 01:30 amNNE 5.1 9.9----30.10- 57.9-----
2024-07-15 01:24 am N 6.0 9.9----30.10- 57.9-----
2024-07-15 01:18 am N 6.0 8.9----30.10-------
2024-07-15 01:12 am N 5.1 8.0----30.10- 58.6-----
2024-07-15 01:06 am N 5.1 8.9----30.10- 58.8-----
2024-07-15 01:00 am N 5.1 8.9----30.10+0.05 59.0-----
2024-07-15 12:54 am N 4.1 8.0----30.10- 59.2-----
2024-07-15 12:48 am N 6.0 8.9----30.10-------
2024-07-15 12:42 am N 4.1 8.9----30.10- 59.4-----
2024-07-15 12:36 am N 6.0 9.9----30.10- 59.4-----
2024-07-15 12:30 amNNE 6.0 9.9----30.10- 59.5-----
2024-07-15 12:24 amNNE 7.0 8.9----30.10- 59.7-----
2024-07-15 12:18 am N 6.0 8.9----30.10-------
2024-07-15 12:12 am N 6.0 8.9----30.10- 60.3-----
2024-07-15 12:06 am N 6.0 11.1----30.09- 60.4-----
2024-07-15 12:00 am N 7.0 11.1----30.09+0.06 60.8-----
2024-07-14 11:54 pm N 7.0 11.1----30.09- 61.2-----
2024-07-14 11:48 pm N 6.0 8.9----30.09-------
2024-07-14 11:42 pmNNE 1.9 7.0----30.09- 62.2-----
2024-07-14 11:36 pm N 4.1 8.0----30.08- 62.4-----
2024-07-14 11:30 pm NE 1.0 8.9----30.08- 62.8-----
2024-07-14 11:24 pm N 5.1 7.0----30.08- 63.0-----
2024-07-14 11:18 pm N 5.1 8.0----30.08-------
2024-07-14 11:12 pm N 6.0 8.9----30.07- 63.7-----
2024-07-14 11:06 pm N 6.0 8.0----30.07- 64.0-----
2024-07-14 11:00 pm N 6.0 8.9----30.07+0.05 64.4-----
2024-07-14 10:54 pm N 4.1 9.9----30.07- 64.8-----
2024-07-14 10:48 pm N 6.0 9.9----30.07-------
2024-07-14 10:42 pm N 5.1 8.0----30.07-------
2024-07-14 10:36 pm N 6.0 8.9----30.07-------
2024-07-14 10:30 pm N 5.1 8.9----30.06- 66.2-----
2024-07-14 10:24 pm N 5.1 7.0----30.06- 66.6-----
2024-07-14 10:18 pm N 5.1 7.0----30.06- 66.9-----
2024-07-14 10:12 pm N 4.1 7.0----30.06- 67.1-----
2024-07-14 10:06 pm N 4.1 7.0----30.06- 67.6-----
2024-07-14 10:00 pm N 4.1 7.0----30.06+0.05 67.8-----
2024-07-14 09:54 pm N 5.1 7.0----30.05- 68.2-----
2024-07-14 09:48 pm N 5.1 7.0----30.05- 68.4-----
2024-07-14 09:42 pm N 4.1 7.0----30.05- 68.7-----
2024-07-14 09:36 pm N 5.1 7.0----30.05- 69.1-----
2024-07-14 09:30 pm N 4.1 7.0----30.05-------
2024-07-14 09:24 pm N 5.1 7.0----30.04-------
2024-07-14 09:18 pm N 5.1 8.0----30.04- 70.2-----
2024-07-14 09:12 pm N 5.1 7.0----30.04- 70.5-----
2024-07-14 09:06 pm N 1.9 5.1----30.04- 70.9-----
2024-07-14 09:00 pm N 1.0 7.0----30.03+0.03 71.4-----
2024-07-14 08:54 pmNNW 1.0 7.0----30.03- 72.0-----
2024-07-14 08:48 pm N 5.1 8.0----30.03- 72.1-----
2024-07-14 08:42 pm N 4.1 8.0----30.03- 72.3-----
2024-07-14 08:36 pm N 5.1 7.0----30.03- 72.7-----
2024-07-14 08:30 pmWNW 5.1 8.0----30.03- 72.5-----
2024-07-14 08:24 pm N 5.1 8.0----30.02- 73.4-----
2024-07-14 08:18 pmWNW 4.1 8.0----30.02-------
2024-07-14 08:12 pm W 2.9 7.0----30.02- 73.6-----
2024-07-14 08:06 pmWSW 7.0 8.0----30.02- 73.6-----
2024-07-14 08:00 pmWSW 6.0 8.0----30.02+0.00 74.1-----
2024-07-14 07:54 pmWSW 5.1 8.0----30.02- 74.5-----
2024-07-14 07:48 pm-------30.02- 74.3-----
2024-07-14 07:42 pm-------30.01- 75.2-----
2024-07-14 07:36 pm-------30.01- 75.4-----
2024-07-14 07:30 pm W 7.0 11.1----30.01- 75.9-----
2024-07-14 07:24 pmWSW 6.0 8.9----30.01- 76.3-----
2024-07-14 07:18 pm SW 5.1 12.0----30.01- 76.5-----
2024-07-14 07:12 pmWSW 8.0 9.9----30.01- 76.6-----
2024-07-14 07:06 pmWSW 4.1 5.1----30.01- 78.3-----
2024-07-14 07:00 pm W 2.9 7.0----30.01-0.01 78.4-----
2024-07-14 06:54 pm W 5.1 7.0----30.01- 77.9-----
2024-07-14 06:48 pm N 4.1 7.0----30.01-------
2024-07-14 06:42 pmNNE 4.1 8.0----30.01- 79.3-----
2024-07-14 06:36 pmNNE 5.1 7.0----30.01- 80.4-----
2024-07-14 06:30 pmNNE 5.1 7.0----30.01- 80.2-----
2024-07-14 06:24 pmNNE 4.1 5.1----30.01- 81.9-----
2024-07-14 06:18 pm NE 4.1 6.0----30.01-------
2024-07-14 06:12 pm NE 4.1 7.0----30.01-------
2024-07-14 06:06 pm NE 5.1 7.0----30.01-------
2024-07-14 06:00 pmNNE 2.9 6.0----30.01-0.03 82.4-----
2024-07-14 05:54 pm NE 5.1 7.0----30.01- 82.4-----
2024-07-14 05:48 pmNNE 4.1 6.0----30.01-------
2024-07-14 05:42 pm NE 4.1 6.0----30.01-------
2024-07-14 05:36 pmNNE 2.9 7.0----30.01-------
2024-07-14 05:30 pm NE 2.9 6.0----30.01- 83.3-----
2024-07-14 05:24 pmNNE 5.1 6.0----30.01- 81.9-----
2024-07-14 05:18 pmNNE 5.1 8.0----30.01-------
2024-07-14 05:12 pmNNE 6.0 8.0----30.01-------
2024-07-14 05:06 pmNNE 4.1 8.0----30.01-------
2024-07-14 05:00 pmNNE 5.1 8.9----30.01-0.02------
2024-07-14 04:54 pmNNE 6.0 7.0----30.01-------
2024-07-14 04:48 pmNNE 5.1 7.0----30.01- 82.2-----
2024-07-14 04:42 pm NE 2.9 5.1----30.01- 83.8-----
2024-07-14 04:36 pmENE 4.1 7.0----30.01- 83.7-----
2024-07-14 04:30 pmNNE 2.9 6.0----30.02-------
2024-07-14 04:24 pmNNE 2.9 7.0----30.02-------
2024-07-14 04:18 pm N 2.9 5.1----30.02- 82.0-----
2024-07-14 04:12 pm N 1.9 5.1----30.02- 81.9-----
2024-07-14 04:06 pm N 1.9 4.1----30.02- 81.5-----
2024-07-14 04:00 pm W 1.9 2.9----30.02-0.02 82.6-----
2024-07-14 03:54 pmWNW 1.9 5.1----30.03- 81.7-----
2024-07-14 03:48 pmWSW 5.1 6.0----30.03-------
2024-07-14 03:42 pmWSW 4.1 6.0----30.03- 81.9-----
2024-07-14 03:36 pm W 6.0 7.0----30.03- 81.1-----
2024-07-14 03:30 pmWSW 4.1 8.0----30.03- 81.1-----
2024-07-14 03:24 pm W 4.1 7.0----30.03- 80.8-----
2024-07-14 03:18 pmWSW 7.0 8.0----30.03- 79.9-----
2024-07-14 03:12 pmWSW 8.0 8.9----30.03- 80.1-----
2024-07-14 03:06 pmWSW 6.0 9.9----30.03- 79.7-----
2024-07-14 03:00 pmWSW 6.0 8.9----30.03-0.01------
2024-07-14 02:54 pmWSW 7.0 8.9----30.03-------
2024-07-14 02:48 pmWSW 7.0 8.9----30.03- 79.2-----
2024-07-14 02:42 pmWSW 7.0 8.9----30.03- 78.8-----
2024-07-14 02:36 pmWSW 7.0 8.9----30.03- 78.4-----
2024-07-14 02:30 pmWSW 6.0 8.9----30.03-------
2024-07-14 02:24 pmWSW 8.0 9.9----30.03-------
2024-07-14 02:18 pmWSW 7.0 8.9----30.03-------
2024-07-14 02:12 pmWSW 7.0 9.9----30.03- 78.6-----
2024-07-14 02:06 pmWSW 7.0 11.1----30.03- 78.1-----
2024-07-14 02:00 pmWSW 8.0 9.9----30.04-0.01 77.9-----
2024-07-14 01:54 pmWSW 8.0 12.0----30.04- 78.1-----
2024-07-14 01:48 pmWSW 8.0 11.1----30.04- 77.4-----
2024-07-14 01:42 pmWSW 8.9 11.1----30.04- 77.2-----
2024-07-14 01:36 pmWSW 8.9 13.0----30.04- 77.0-----
2024-07-14 01:30 pmWSW 8.0 11.1----30.04- 77.4-----
2024-07-14 01:24 pmWSW 9.9 12.0----30.04- 76.8-----
2024-07-14 01:18 pmWSW 8.9 11.1----30.04-------
2024-07-14 01:12 pmWSW 8.9 11.1----30.04-------
2024-07-14 01:06 pmWSW 8.9 11.1----30.04-------
2024-07-14 01:00 pmWSW 7.0 9.9----30.04-------
2024-07-14 12:54 pmWSW 8.0 9.9----30.04-------
2024-07-14 12:48 pmWSW 8.0 9.9----30.04- 75.9-----
2024-07-14 12:42 pmWSW 7.0 9.9----30.04- 76.6-----
2024-07-14 12:36 pmWSW 8.0 9.9----30.04- 75.7-----
2024-07-14 12:30 pmWSW 7.0 9.9----30.04-------
2024-07-14 12:24 pmWSW 7.0 9.9----30.04-------
2024-07-14 12:18 pmWSW 8.0 9.9----30.04-------
2024-07-14 12:12 pmWSW 8.0 8.9----30.04- 75.0-----
2024-07-14 12:06 pmWSW 8.0 9.9----30.04- 74.3-----
2024-07-14 12:00 pmWSW 7.0 9.9----30.05-0.01 74.1-----
2024-07-14 11:54 amWSW 7.0 8.9----30.05- 74.1-----
2024-07-14 11:48 amWSW 7.0 8.9----30.05- 73.8-----
2024-07-14 11:42 amWSW 7.0 8.9----30.05- 74.5-----
2024-07-14 11:36 amWSW 7.0 8.9----30.05- 74.1-----
2024-07-14 11:30 amWSW 8.0 9.9----30.05-------
2024-07-14 11:24 amWSW 7.0 8.9----30.05-------
2024-07-14 11:18 amWSW 8.9 8.9----30.05-------
2024-07-14 11:12 am W 7.0 8.0----30.05-------
2024-07-14 11:06 am W 6.0 7.0----30.05-------
2024-07-14 11:00 amWSW 6.0 6.0----30.05+0.00 73.2-----
2024-07-14 10:54 amWSW 6.0 7.0----30.05- 72.9-----
2024-07-14 10:48 am W 6.0 7.0----30.05-------
2024-07-14 10:42 am W 6.0 7.0----30.05-------
2024-07-14 10:36 am W 5.1 7.0----30.05-------
2024-07-14 10:30 am W 5.1 6.0----30.05-------
2024-07-14 10:24 amWSW 5.1 6.0----30.05-------
2024-07-14 10:18 am W 5.1 7.0----30.05- 71.1-----
2024-07-14 10:12 amWSW 5.1 6.0----30.05- 70.3-----
2024-07-14 10:06 am W 6.0 7.0----30.05- 70.2-----
2024-07-14 10:00 amWSW 5.1 6.0------ 70.2-----
2024-07-14 09:54 am W 6.0 7.0------ 70.0-----
2024-07-14 09:48 am W 6.0 7.0----30.05- 69.8-----
2024-07-14 09:42 amWSW 6.0 7.0----30.05- 68.9-----
2024-07-14 09:36 am W 6.0 8.0----30.06- 68.7-----
2024-07-14 09:30 am W 5.1 7.0----30.06- 69.3-----
2024-07-14 09:24 am W 5.1 6.0----30.06- 69.4-----
2024-07-14 09:18 am-------30.06-------
2024-07-14 09:12 am-------30.06- 70.2-----
2024-07-14 09:06 am-------30.06- 69.4-----
2024-07-14 09:00 amWSW 4.1 4.1----30.06+0.02 67.3-----
2024-07-14 08:54 amWSW 2.9 4.1----30.06- 67.3-----
2024-07-14 08:48 am W 2.9 2.9----30.06-------
2024-07-14 08:42 am W 2.9 2.9----30.06-------
2024-07-14 08:36 am W 2.9 2.9----30.06-------
2024-07-14 08:30 am W 1.9 1.9----30.06- 68.4-----
2024-07-14 08:24 am W 1.9 2.9----30.06- 67.6-----
2024-07-14 08:18 am W 2.9 4.1----30.05- 66.2-----
2024-07-14 08:12 am W 2.9 4.1----30.05- 66.4-----
2024-07-14 08:06 amWNW 1.9 2.9----30.05- 66.4-----
2024-07-14 08:00 am W 1.9 2.9----30.05+0.03 67.6-----
2024-07-14 07:54 am W 1.0 1.9----30.05- 67.3-----